Location: Cassagne
(43.1218°N, 0.9901°E)
Time: 10:12:58
(UTC+00:00)

STARLINK-1073 - Pass Details

Date: 17 February 2020
Orbit: 548 x 551 km, 53.0° (Epoch: 30 March)

Event Time Altitude Azimuth Distance (km) Brightness Sun altitude
Exits shadow 04:28:18 - 163° (SSE) 2,084 6.6 -26.8°
Reaches altitude 10° 04:29:31 10° 149° (SSE) 1,839 6.5 -26.6°
Drops below altitude 10° 04:32:55 10° 101° (ESE) 1,851 7.2 -26.0°
Enters shadow 05:34:16 -64° 233° (SW) 12,079 10.3 -14.8°
Maximum altitude 06:10:22 77° 142° (SE) 581 3.8 -8.2°
